Date String (YYYY-MM-DD hh:mm:ss) UTC,Instrument flags,Ambient pressure (hPa),Sample flow (lpm),Bypass flow (lpm),Sample temperature (°C),Ambient temperature (°C),ASC tube jacket temperature (°C),LED temperature (°C),Box temperature (°C),Sample RH (%),Span deviation,Mass concentration (μg/m³),Mass concentration (μg/m³),Mass concentration (μg/m³)
DateTimeUTC,F1_M11,P_M11,Q1_M11,Q2_M11,T1_M11,T2_M11,T3_M11,T4_M11,T5_M11,U1_M11,ZSPAN_M11,X2_M11,X0_M11,X1_M11
2022-02-03 11:00:00,,0826.7,5.01,0.00,21.9,21.3,00.0,31.1,23.1,03.1,0001.3,0006.29,0009.83,0005.89
2022-02-03 11:01:00,,0826.7,5.00,0.00,21.7,20.9,00.0,31.0,22.9,03.1,0001.8,0006.27,0009.47,0005.88
2022-02-03 11:02:00,,0826.7,5.00,0.00,21.8,21.3,00.0,31.0,23.1,03.1,0001.6,0006.27,0009.46,0005.88
2022-02-03 11:03:00,,0826.7,4.99,0.00,21.9,21.8,00.0,31.0,23.3,03.0,0001.3,0006.23,0009.40,0005.87
2022-02-03 11:04:00,,0826.7,5.01,0.00,21.9,22.1,00.0,31.0,23.5,03.0,0001.5,0006.22,0009.35,0005.85
2022-02-03 11:05:00,,0826.7,4.99,0.00,22.1,22.5,00.0,31.0,23.7,02.9,0002.0,0006.19,0009.29,0005.84
2022-02-03 11:06:00,,0826.7,5.01,0.00,22.2,22.7,00.0,31.1,23.9,02.9,0002.3,0006.18,0008.96,0005.83
2022-02-03 11:07:00,,0826.7,4.99,0.00,22.3,23.0,00.0,31.1,24.0,02.9,0002.7,0006.16,0008.96,0005.81
2022-02-03 11:08:00,,0826.7,5.01,0.00,22.4,23.1,00.0,31.2,24.1,02.9,0003.1,0006.16,0009.00,0005.79
2022-02-03 11:09:00,,0826.7,4.99,0.00,22.5,23.2,00.0,31.2,24.2,02.9,0002.8,0006.18,0009.10,0005.78
2022-02-03 11:10:00,,0826.6,5.02,0.00,22.5,22.7,00.0,31.2,24.0,02.9,0002.9,0006.14,0009.08,0005.75
2022-02-03 11:11:00,,0826.6,4.99,0.00,22.2,22.0,00.0,31.2,23.5,02.9,0002.6,0006.15,0009.18,0005.74
2022-02-03 11:12:00,,0826.7,5.00,0.00,22.0,21.3,00.0,31.1,23.2,03.0,0002.1,0006.14,0009.16,0005.73
2022-02-03 11:13:00,,0826.7,4.99,0.00,21.8,20.7,00.0,31.1,22.9,03.1,0002.2,0006.09,0009.07,0005.70
2022-02-03 11:14:00,,0826.6,5.01,0.00,21.8,21.0,00.0,31.0,23.0,03.1,0002.0,0006.09,0009.07,0005.69
2022-02-03 11:15:00,,0826.6,4.99,0.00,21.9,21.6,00.0,31.1,23.3,03.1,0001.4,0006.06,0009.00,0005.69
2022-02-03 11:16:00,,0826.6,5.00,0.00,22.0,22.1,00.0,31.1,23.5,03.1,0001.4,0006.08,0009.04,0005.69
2022-02-03 11:17:00,,0826.7,4.98,0.00,22.1,22.5,00.0,31.1,23.7,03.1,0001.0,0006.04,0008.91,0005.66
2022-02-03 11:18:00,,0826.6,5.00,0.00,22.2,22.8,00.0,31.1,23.9,03.1,0000.3,0006.02,0008.86,0005.65
2022-02-03 11:19:00,,0826.6,5.01,0.00,22.3,23.0,00.0,31.2,24.0,03.1,-000.6,0005.99,0008.78,0005.64
2022-02-03 11:20:00,,0826.6,4.99,0.00,22.2,22.5,00.0,31.1,23.7,03.1,-000.5,0005.94,0008.64,0005.64
2022-02-03 11:21:00,,0826.6,4.99,0.00,22.0,21.7,00.0,31.1,23.3,03.2,-000.3,0005.93,0008.60,0005.63
2022-02-03 11:22:00,,0826.6,5.02,0.00,21.8,21.0,00.0,31.1,23.0,03.2,-000.0,0005.89,0008.49,0005.63
2022-02-03 11:23:00,,0826.6,4.99,0.00,21.7,20.7,00.0,31.0,22.8,03.2,-000.1,0005.89,0008.51,0005.62
2022-02-03 11:24:00,,0826.6,5.00,0.00,21.7,21.1,00.0,31.0,23.0,03.2,-000.1,0005.91,0008.53,0005.64
2022-02-03 11:25:00,,0826.7,5.01,0.00,21.8,21.7,00.0,31.0,23.3,03.2,0000.0,0005.90,0008.54,0005.63
2022-02-03 11:26:00,,0826.7,4.99,0.00,21.9,22.1,00.0,31.0,23.5,03.1,0000.0,0005.90,0008.90,0005.62
2022-02-03 11:27:00,,0826.7,5.01,0.00,22.0,22.5,00.0,31.0,23.7,03.1,0000.0,0005.89,0008.88,0005.62
2022-02-03 11:28:00,,0826.7,4.99,0.00,22.1,22.8,00.0,31.1,23.9,03.1,0000.0,0005.88,0008.86,0005.63
2022-02-03 11:29:00,,0826.7,4.99,0.00,22.2,23.0,00.0,31.1,24.0,03.1,0000.0,0005.89,0008.88,0005.64
2022-02-03 11:30:00,,0826.7,5.00,0.00,22.3,22.9,00.0,31.1,24.0,03.1,0000.0,0005.94,0008.97,0005.65
2022-02-03 11:31:00,,0826.7,5.00,0.00,22.2,22.2,00.0,31.1,23.6,03.1,0000.0,0005.97,0009.04,0005.65
2022-02-03 11:32:00,,0826.8,5.01,0.00,22.0,21.4,00.0,31.1,23.2,03.1,0000.0,0005.99,0009.10,0005.67
2022-02-03 11:33:00,,0826.7,5.00,0.00,21.7,20.6,00.0,31.0,22.8,03.2,0000.0,0006.01,0009.10,0005.67
2022-02-03 11:34:00,,0826.7,4.99,0.00,21.6,20.7,00.0,31.0,22.8,03.2,0000.0,0006.03,0009.11,0005.68
2022-02-03 11:35:00,,0826.7,4.99,0.00,21.7,21.3,00.0,31.0,23.1,03.2,0000.0,0006.02,0009.09,0005.67
2022-02-03 11:36:00,,0826.7,5.00,0.00,21.8,21.8,00.0,31.0,23.3,03.2,0000.0,0006.02,0009.07,0005.67
2022-02-03 11:37:00,,0826.7,5.01,0.00,21.9,22.2,00.0,31.0,23.5,03.2,0000.0,0006.02,0008.71,0005.67
2022-02-03 11:38:00,,0826.6,4.99,0.00,22.0,22.6,00.0,31.0,23.8,03.1,0000.0,0006.03,0008.74,0005.67
2022-02-03 11:39:00,,0826.7,5.01,0.00,22.2,22.9,00.0,31.1,23.9,03.1,0000.0,0006.07,0008.83,0005.66
2022-02-03 11:40:00,,0826.6,4.99,0.00,22.3,23.1,00.0,31.1,24.0,03.1,0000.0,0006.05,0008.82,0005.65
2022-02-03 11:41:00,,0826.6,5.00,0.00,22.3,22.8,00.0,31.1,23.9,03.1,0000.0,0006.00,0008.72,0005.64
2022-02-03 11:42:00,,0826.6,5.00,0.00,22.1,21.9,00.0,31.1,23.5,03.1,0000.0,0005.98,0008.67,0005.64
2022-02-03 11:43:00,,0826.6,5.01,0.00,21.9,21.0,00.0,31.0,23.1,03.1,0000.0,0005.98,0008.61,0005.66
2022-02-03 11:44:00,,0826.6,4.99,0.00,21.7,20.3,00.0,31.0,22.7,03.2,0000.0,0005.97,0008.63,0005.66
2022-02-03 11:45:00,,0826.6,5.01,0.00,21.7,20.7,00.0,30.9,22.9,03.2,0000.0,0005.97,0008.63,0005.66
2022-02-03 11:46:00,,0826.6,5.00,0.00,21.7,21.4,00.0,30.9,23.2,03.2,0000.5,0005.99,0008.71,0005.66
2022-02-03 11:47:00,,0826.6,5.01,0.00,21.9,21.9,00.0,31.0,23.4,03.2,0001.0,0005.97,0008.65,0005.66
2022-02-03 11:48:00,,0826.6,5.02,0.00,22.0,22.3,00.0,31.0,23.6,03.2,0000.8,0005.97,0008.73,0005.64
2022-02-03 11:49:00,,0826.6,4.99,0.00,22.1,22.6,00.0,31.0,23.8,03.2,0001.1,0005.96,0008.74,0005.64
2022-02-03 11:50:00,,0826.6,5.00,0.00,22.2,22.9,00.0,31.1,23.9,03.1,0000.6,0005.94,0008.69,0005.65
2022-02-03 11:51:00,,0826.6,5.00,0.00,22.3,23.1,00.0,31.1,24.0,03.1,0000.1,0005.97,0008.77,0005.66
2022-02-03 11:52:00,,0826.6,5.00,0.00,22.4,23.2,00.0,31.1,24.1,03.1,0000.4,0006.01,0008.89,0005.66
2022-02-03 11:53:00,,0826.6,4.99,0.00,22.3,22.5,00.0,31.1,23.8,03.1,0000.9,0006.00,0008.89,0005.66
2022-02-03 11:54:00,,0826.5,5.01,0.00,22.1,21.7,00.0,31.1,23.4,03.2,-000.4,0005.97,0009.02,0005.64
2022-02-03 11:55:00,,0826.5,5.00,0.00,21.9,21.0,00.0,31.0,23.0,03.2,-000.8,0005.98,0009.04,0005.63
2022-02-03 11:56:00,,0826.5,5.01,0.00,21.7,20.7,00.0,31.0,22.7,03.3,-000.3,0005.95,0009.01,0005.62
2022-02-03 11:57:00,,0826.5,4.99,0.00,21.7,21.2,00.0,31.0,23.0,03.3,-000.2,0005.93,0008.93,0005.60
2022-02-03 11:58:00,,0826.5,5.00,0.00,21.8,21.7,00.0,31.0,23.2,03.3,0000.0,0005.94,0008.96,0005.59
2022-02-03 11:59:00,,0826.5,4.99,0.00,21.9,22.2,00.0,31.0,23.5,03.2,0000.1,0005.94,0008.89,0005.61
